ONEWEB-0356 (49283 NORAD) Tracking and Keplerian Element Data

This shows tracking and keplerian element data for the satellite.

Feedback or suggestion? Click here.




ElementValue
Catalog49283
NameONEWEB-0356
Epoch Orbit355
Epoch Day339.91667824
Epoch Year2021
RAAN274.9995
Inclination87.2044
Eccentricity0.0010094
Argument of Perigee88.6662
Mean Anonmoly161.0642
Mean Motion14.90993729
Decay Rate-0.00053773
L11 49283U 21090E 21339.91667824 -.00053773 00000+0 -54891-2 0 9994
L22 49283 87.2044 274.9995 0010094 88.6662 161.0642 14.90993729 3554

Live tracking and technical data element details for ONEWEB-0356 (NORAD 49283). ONEWEB-0356 can be tracked NOW for your location showing map with azimuth and elevation plus other details from your city location.

Track the satellite on the map from your city or location and see movement details for azimuth, elevation, latitude, longitude, range, height, and movement on the map or in text.







IsCatalogInMostPopularTable: catalog: 49283, numindb: 8
Update: records affected: 1



GetName: 49283 ONEWEB-0356

Hit Count: updated at: Mon, 06 Dec 2021 15:48:32 GMT